Torna al catalogo

CZ-6A DEB

AttivoPO
NORAD 54912·DEBRIS·🇨🇳 China

Lanciato Nov 11, 2022 da Taiyuan Satellite Launch Center

Loading…

Prossimi Passaggi (prossime 24 ore)

TLE

AggiornatoSource: Space-Track

Epoca: Sep 14, 2026, 05:04 UTC

1 54912U 22151QZ  26257.21112809  .00005463  00000-0  90991-3 0  9997
2 54912  98.7613 349.7858 0093850  35.9133 324.8329 14.67581546199692

Traccia CZ-6A DEB in tempo reale con AllMySat

Download on the App Store